Weather in Bol'shaya Kartel'

Russia / Khabarovsk Krai     50°23′16″N   137°22′58″E
temp.,
°C
wind,
m/s
gust,
m/s
humid.,
%
clouds,
%
prec.,
mm/h
press.,
hPa
HPBL,
m
30 june, thu
thu3001:00+15nne34860 0.0 100782
04:00+14nne35910 0.0 1008106
07:00+17nne25774 0.0 1010176
10:00+23nne23560 0.0 1011622
13:00+27ne23440 0.0 10101238
16:00+28ne23410 0.0 10091475
19:00+26e11620 0.0 100931
22:00+19nw00760 0.0 101011
1 july, fri
fri101:00+17ene11840 0.0 101011
04:00+16sse11880 0.0 101111
07:00+20s25810 0.0 1012250
10:00+24ssw477114 0.0 1011685
13:00+27ssw56630 0.0 1010859
16:00+28ssw56620 0.0 10091006
19:00+26ssw48750 0.1 1008622
22:00+22s310920 0.1 1009322
2 july, sat
sat201:00+21s412900 0.0 1009370
04:00+19s412944 0.0 1008409
07:00+21ssw4118818 0.0 1009481
10:00+24ssw58690 0.0 1008699
13:00+28ssw575856 0.0 1007891
16:00+28sw576095 0.0 1005987
19:00+24ssw398079 0.0 1005385
22:00+21sse2495100 0.0 100567
3 july, sun
sun301:00+20sse26978 0.0 1006148
04:00+19sse229894 0.0 100633
07:00+21s259284 0.0 1006284
10:00+26ssw237269 0.0 1006873
13:00+29sw235995 0.1 10051357
16:00+29sw33557 0.1 10041296
19:00+27ssw247222 0.3 1003593
22:00+21sse2294100 2.2 100438
4 july, mon
mon401:00+20sse119499 0.0 100411
04:00+19sse119382 0.9 100412
07:00+21sse1290100 0.4 1004115
10:00+25ssw3572100 0.4 1003662
13:00+26ssw4671100 0.0 1003807
16:00+28ssw456191 0.0 10021152
19:00+24ssw4780100 0.0 1002528
22:00+20sse249797 0.0 100386